Volver al catálogo

IRIDIUM 135

ActivoComunicacionesPO
NORAD 43070·PAYLOAD·🇺🇸 United States

Lanzado Dec 23, 2017 desde Vandenberg Space Force Base

Loading…

Próximos Pases (próximas 24 horas)

TLE

ActualizadoSource: CelesTrak SupGP

Época: Sep 14, 2026, 21:26 UTC

1 43070C 17083A   26257.89340278  .00003225  00000+0  11532-2 0  2578
2 43070  86.3914 284.5131 0002290  93.9892   6.9001 14.34213961    15

Sigue IRIDIUM 135 en tiempo real con AllMySat

Download on the App Store